Theta_e
331 331 331 331 332 332 330 331 333 333 335 336 336 336 336 337 337 337 337 337 336 335 336 335 334 334 334 334 334 333 331 330 329 327 326 325 324 325 326 325 324 324 322 320 319 319 315 311 316 323 326 326 327 329 331 332 333 333 332 331 330 329 329
332 333 334 333 332 332 331 332 332 332 334 335 336 335 335 336 337 337 336 335 335 335 336 336 335 335 334 333 333 332 331 330 330 329 327 326 326 325 324 324 325 324 323 322 321 320 317 315 316 318 321 325 325 325 327 331 333 333 333 333 332 331 330
329 331 334 333 331 331 331 331 332 332 333 333 334 335 335 336 336 336 336 335 335 335 336 335 336 335 334 334 333 333 333 331 330 330 328 327 326 327 326 325 322 323 321 322 321 321 320 320 317 317 321 321 321 325 326 327 330 333 334 333 332 332 332
326 327 328 330 332 331 330 331 331 332 333 333 333 334 335 335 335 336 336 335 335 335 335 334 334 335 335 335 334 334 333 332 331 329 328 328 326 326 326 325 324 323 322 321 321 321 321 318 317 320 322 323 323 322 325 327 328 330 333 333 333 333 333
325 326 327 327 330 331 331 331 332 332 332 332 333 333 333 334 335 335 335 335 335 335 334 335 334 335 336 336 335 334 333 333 333 331 330 328 327 326 325 326 326 325 324 324 324 323 321 321 321 320 319 319 322 324 326 325 328 329 330 332 333 333 333
324 325 326 326 328 329 331 331 331 331 331 329 331 332 333 333 334 333 334 334 334 334 335 335 335 335 336 336 335 334 334 333 333 332 331 329 329 327 327 327 326 326 325 326 325 323 322 322 321 320 321 320 320 320 325 324 325 328 330 331 332 333 333
317 323 325 326 327 328 330 331 331 331 331 332 332 332 334 334 334 334 334 334 334 334 334 335 335 335 336 335 335 335 334 334 333 332 332 331 330 329 329 328 327 327 326 327 326 324 323 321 320 320 321 319 318 321 320 321 325 325 327 330 331 332 332
313 318 323 326 327 326 327 329 330 332 332 333 333 334 334 334 334 334 333 333 333 333 334 334 335 335 336 335 335 335 335 335 334 333 332 332 331 330 329 329 329 329 328 327 326 325 325 324 323 322 321 319 318 317 319 320 322 325 327 327 331 331 331
313 316 320 326 328 328 328 328 328 330 332 333 334 334 334 334 334 334 334 333 333 333 333 334 334 334 335 335 335 335 334 336 334 333 333 332 331 331 330 330 329 329 330 329 328 327 326 326 325 324 322 321 318 316 318 318 318 323 328 326 327 330 331
309 310 313 317 322 327 329 329 329 330 331 333 333 335 335 334 334 335 334 334 333 332 332 333 334 334 334 334 334 334 334 335 335 334 334 333 332 332 331 331 330 330 330 330 329 328 327 326 326 325 325 323 322 318 316 316 319 321 325 327 325 327 331
308 309 312 315 318 322 326 328 331 331 331 333 333 334 335 335 334 335 334 334 334 333 332 333 334 334 334 334 334 334 335 335 335 335 334 334 333 332 332 332 331 330 331 330 330 330 328 327 326 326 326 326 325 321 320 317 318 322 323 323 327 326 327
308 310 311 313 314 316 320 325 327 329 331 332 332 333 333 334 334 335 334 333 333 332 333 332 333 333 334 333 333 333 334 334 333 332 332 332 333 333 332 331 332 331 332 331 330 330 329 328 327 326 326 327 327 325 323 321 318 322 325 324 326 329 328
308 309 309 310 311 312 315 319 324 327 329 331 332 333 333 333 334 334 334 334 333 333 332 332 332 332 332 332 332 332 332 333 332 331 331 333 333 333 332 331 331 331 332 332 331 331 331 330 329 328 327 326 327 327 326 324 321 321 324 325 326 327 329
305 307 307 309 310 312 314 317 322 327 329 329 331 331 332 333 334 334 334 334 334 333 332 332 332 331 330 331 332 332 332 331 331 331 331 331 332 333 332 332 332 332 333 332 331 331 331 331 331 330 329 328 327 328 327 325 323 323 325 324 324 326 328
305 306 307 308 309 310 312 315 320 326 327 329 330 330 331 332 333 334 334 333 334 334 333 333 332 331 329 329 330 331 331 331 330 331 331 331 332 333 333 331 332 332 333 332 331 331 331 331 331 331 331 330 329 329 329 327 325 324 324 324 323 326 327
305 306 306 307 307 309 311 314 319 324 327 328 329 330 330 331 332 333 333 333 333 334 334 333 333 331 331 330 330 330 331 330 330 330 330 330 331 332 332 331 331 332 332 331 331 331 331 331 331 331 331 331 330 331 331 330 328 325 325 326 325 325 326
304 304 305 306 307 308 310 313 318 323 327 328 328 329 330 331 331 332 332 332 332 333 333 334 333 332 331 331 331 330 330 330 330 330 330 330 331 331 331 331 331 332 331 330 330 331 331 331 330 330 331 331 331 330 331 330 330 328 327 325 326 325 326
303 303 305 306 307 308 310 312 315 319 324 326 327 328 329 331 331 332 332 332 332 332 333 333 333 332 332 332 331 331 330 330 330 330 331 331 332 331 331 331 332 332 332 330 330 330 331 330 330 330 330 331 331 331 331 330 329 329 328 326 327 325 324
302 303 305 306 308 309 310 311 313 318 323 325 326 327 328 330 331 331 332 333 333 333 333 333 333 332 332 332 331 331 331 331 330 330 330 331 331 332 331 331 332 333 332 331 330 330 330 330 330 330 329 329 330 330 330 329 328 328 327 328 327 326 319
302 303 305 306 308 309 310 311 314 318 324 325 325 326 328 329 330 331 332 333 333 333 333 333 332 332 332 332 331 331 331 331 331 331 331 331 331 332 332 332 332 333 332 332 331 331 330 330 330 330 330 329 329 329 328 328 328 327 326 326 327 327 326
304 305 307 308 309 310 312 314 318 322 324 323 324 325 326 327 329 330 331 331 332 333 333 333 332 332 332 332 331 331 331 330 330 330 330 331 331 332 332 332 332 333 333 333 333 332 332 330 331 329 330 330 329 328 327 327 327 327 326 325 325 325 324
307 308 309 309 309 310 311 312 316 320 323 324 325 326 327 327 327 327 329 330 331 332 332 332 332 332 331 331 331 330 331 331 330 330 330 330 331 331 332 332 333 333 333 331 325 326 327 327 331 329 330 330 329 328 327 326 326 325 325 325 324 325 323
304 305 306 306 307 308 309 310 312 315 319 320 322 324 326 327 327 327 327 328 329 330 331 332 328 320 321 331 331 331 331 331 331 330 330 330 330 331 331 332 333 330 325 323 321 317 315 317 321 329 331 330 328 327 327 326 325 325 324 324 324 323 322
302 302 303 304 305 307 307 308 309 311 313 318 320 322 324 325 327 328 328 328 328 329 330 331 318 310 309 312 327 331 331 330 330 330 330 330 329 329 330 331 331 331 327 324 323 314 312 312 312 314 317 322 325 329 327 326 325 325 323 323 324 323 323
299 300 302 302 303 305 305 305 305 306 308 309 312 316 320 322 324 325 327 328 328 329 329 322 312 309 308 307 313 329 332 331 330 330 330 330 330 330 329 330 330 330 331 331 331 329 318 311 309 309 310 311 312 314 318 326 326 325 324 323 323 323 323
298 299 300 301 302 303 303 302 302 303 304 307 309 310 313 320 322 323 324 325 326 327 329 315 307 307 308 307 306 316 331 331 330 330 330 330 330 330 329 329 329 330 331 327 329 330 331 328 312 307 309 310 310 309 307 308 313 327 328 325 324 324 324
298 298 299 300 301 301 301 300 300 301 303 304 306 308 310 312 318 323 324 325 325 327 328 318 306 305 307 307 306 310 329 330 331 331 330 330 330 330 330 329 329 329 330 331 330 330 331 330 329 327 323 319 319 318 309 306 306 308 317 327 326 325 327
298 298 298 298 299 298 298 298 298 299 301 302 304 305 305 307 309 314 320 322 323 325 327 311 303 302 301 302 304 307 327 329 329 330 331 331 330 330 330 330 330 329 329 329 330 328 329 330 329 328 326 325 325 324 325 325 323 322 320 322 325 327 328
298 298 298 297 297 297 297 297 297 298 300 301 302 303 303 305 306 308 312 319 321 322 325 308 304 302 302 302 301 311 324 328 328 328 329 330 330 330 331 330 330 329 329 329 323 312 319 328 329 328 327 326 326 326 326 323 316 315 322 324 324 324 325
297 297 297 296 296 296 296 296 296 298 298 299 299 299 301 302 304 306 309 314 319 321 323 313 304 303 301 301 303 314 320 325 326 326 327 329 330 330 330 330 330 330 329 329 319 308 307 315 326 327 327 326 326 326 325 326 312 306 307 307 309 310 309
296 296 296 295 296 296 296 297 296 298 297 297 297 298 300 301 303 305 307 310 316 318 319 316 305 302 300 301 306 317 319 321 323 324 326 328 328 329 330 326 331 330 329 329 314 307 306 313 325 325 326 325 324 323 323 325 327 322 307 306 305 302 302
296 295 295 295 296 296 296 297 298 298 297 297 298 299 300 300 302 303 306 308 312 316 319 317 306 301 300 300 305 317 321 322 322 323 324 323 325 326 328 325 324 324 327 324 311 307 304 313 325 325 325 324 322 321 323 325 325 324 324 321 316 315 313
295 295 295 296 296 296 297 298 298 297 297 298 298 298 299 300 300 302 304 307 310 315 319 320 317 304 301 299 300 314 319 322 321 322 323 323 323 325 326 327 322 308 307 308 306 304 303 306 324 326 325 323 322 322 325 325 324 324 324 323 323 322 322
295 296 296 296 297 298 298 297 298 297 298 298 298 298 298 299 300 302 304 307 310 313 318 320 318 306 303 301 299 304 317 320 322 323 322 320 322 323 324 325 326 313 305 304 304 303 303 302 307 324 324 323 322 322 320 325 323 322 322 320 320 322 322
295 296 295 295 294 295 297 297 297 297 295 294 294 294 294 296 298 300 303 306 309 312 317 316 320 308 301 301 299 299 314 321 322 323 322 322 322 322 324 325 325 316 304 302 302 301 300 301 301 318 322 310 309 306 321 324 322 320 320 320 320 320 320
294 296 295 294 293 293 293 292 292 292 291 290 290 290 292 293 294 296 299 303 305 310 314 317 308 312 303 298 298 297 300 311 307 322 323 322 322 323 323 323 322 312 303 301 301 301 300 297 299 309 304 302 303 302 308 319 317 320 319 319 319 319 319
294 296 295 294 293 291 291 291 291 290 290 289 289 289 290 292 293 295 297 298 301 306 314 316 301 296 299 298 298 297 297 299 304 318 323 324 324 323 321 318 312 301 299 301 302 302 301 300 306 302 300 301 301 302 313 315 315 317 315 316 316 317 318
Wind_Speed
9 9 9 9 8 9 10 13 11 9 10 10 9 11 11 11 10 11 11 10 10 10 9 9 10 8 7 7 8 10 8 8 10 11 10 7 9 8 7 9 8 5 3 4 3 8 5 2 5 4 6 8 7 9 11 11 11 11 10 9 10 10 9
9 9 9 9 9 9 10 9 8 9 8 10 11 12 11 11 12 11 10 9 10 11 9 8 9 9 10 9 9 9 9 9 9 9 8 9 9 11 5 8 8 8 6 3 3 3 6 5 8 6 7 4 6 8 9 10 11 10 11 11 11 11 10
8 8 7 8 8 8 10 11 9 9 8 8 10 12 12 12 12 12 11 12 12 11 9 10 10 11 11 11 12 11 11 11 8 9 11 9 8 8 8 7 7 8 5 6 6 6 6 6 9 5 7 7 8 10 9 10 11 11 10 10 10 10 10
11 10 8 8 7 7 9 10 9 9 9 9 8 9 11 12 13 13 12 13 12 11 11 12 11 10 10 11 11 12 12 12 10 10 10 9 7 8 10 9 10 9 10 10 10 7 6 5 4 9 7 5 9 9 8 10 10 11 10 10 10 11 11
10 9 10 10 9 9 8 9 9 8 8 7 8 9 9 10 10 11 12 12 12 12 12 12 12 11 10 10 10 11 11 12 11 11 10 11 11 8 9 9 9 8 9 10 9 7 7 7 6 7 5 3 5 7 4 2 6 9 10 11 12 12 11
10 10 10 11 9 9 9 9 8 8 8 8 9 9 10 11 9 10 11 12 11 12 13 13 13 14 12 11 11 12 12 12 12 12 11 12 11 11 10 8 8 9 11 9 7 8 6 6 7 8 7 3 7 5 6 4 5 5 9 11 11 11 10
10 10 9 10 10 9 8 10 10 9 10 10 10 11 11 11 10 11 12 12 13 13 13 13 13 13 13 12 12 12 13 12 11 13 14 13 12 13 9 9 10 10 11 9 9 8 9 7 8 9 9 4 3 7 3 3 3 3 6 9 10 9 9
9 10 9 8 9 9 8 9 10 9 10 10 10 10 11 12 12 12 12 12 13 13 12 13 12 12 12 11 11 13 12 10 12 12 12 13 13 13 12 11 11 10 11 10 9 10 9 11 10 8 7 9 7 5 6 3 3 8 11 3 9 10 11
9 9 9 9 9 9 10 10 11 10 9 9 10 10 11 11 11 12 12 13 13 14 14 14 13 12 12 12 11 11 12 9 11 14 13 12 14 14 13 12 11 13 11 10 9 10 10 10 10 8 7 8 9 11 6 7 4 8 8 8 5 8 10
10 10 10 12 12 10 10 10 10 11 10 10 9 10 11 11 11 12 12 13 13 13 13 13 13 13 12 12 11 11 11 11 11 13 12 12 12 12 11 14 13 12 11 10 10 10 9 8 9 9 9 11 9 10 10 8 9 9 8 7 8 6 9
10 11 10 10 10 10 10 9 10 10 11 10 10 10 10 12 12 13 12 12 12 12 13 12 12 13 12 11 12 13 14 13 12 11 11 12 12 11 12 12 12 13 12 11 11 11 9 9 9 9 9 9 8 12 11 11 11 6 7 3 6 7 4
10 10 9 10 9 10 11 11 10 11 11 11 11 11 11 12 12 12 12 12 11 12 13 13 12 11 12 12 13 12 10 9 9 10 9 10 11 11 13 14 13 13 12 12 12 10 10 9 10 9 9 8 9 10 11 10 11 8 6 9 8 8 7
10 10 10 10 10 10 11 11 12 11 12 11 10 11 12 12 13 13 12 12 12 13 12 10 10 11 11 12 12 11 11 11 11 12 13 12 11 12 14 15 15 13 12 11 11 11 10 10 9 9 9 9 10 10 9 10 12 16 6 8 7 6 8
12 11 11 11 11 11 10 11 11 11 10 10 10 11 12 13 13 13 14 14 13 13 13 13 12 10 9 11 12 12 12 11 13 13 13 14 14 14 14 15 15 15 13 13 12 11 10 10 9 9 9 9 10 10 10 11 13 15 9 6 6 6 4
11 11 11 10 11 12 11 11 11 11 11 11 10 11 12 11 12 13 13 15 14 13 13 14 13 11 12 13 13 11 12 13 14 14 12 15 15 14 14 15 16 15 14 14 13 12 11 10 10 10 10 10 11 10 10 11 13 12 16 5 6 5 6
11 10 11 11 12 12 12 12 12 11 10 10 10 10 11 12 12 13 14 14 15 14 14 14 13 14 15 16 15 13 13 14 15 15 15 17 16 14 14 15 16 14 11 13 13 13 11 12 10 11 13 11 12 11 10 11 10 12 13 12 6 6 6
11 11 12 11 12 12 12 12 12 12 11 10 10 10 11 12 12 13 14 14 14 15 15 13 14 13 15 15 15 16 15 16 16 17 18 18 17 15 15 15 15 14 12 13 13 12 12 11 11 11 13 13 12 13 11 9 12 11 10 11 7 8 6
12 13 12 11 12 13 13 13 12 13 12 11 10 10 10 10 12 13 14 15 15 15 15 15 15 15 14 15 16 16 16 16 17 17 18 18 16 15 15 16 16 13 13 14 13 13 12 13 12 12 13 13 12 11 9 9 11 11 11 13 12 5 5
12 13 13 12 12 13 13 13 13 12 12 11 9 9 10 10 11 13 14 14 14 15 15 15 15 15 15 15 16 16 16 15 16 17 17 17 16 15 15 16 15 14 14 15 14 13 12 14 13 13 15 14 13 11 10 9 8 9 11 13 12 10 4
12 12 12 12 12 12 13 13 14 13 11 9 8 9 9 11 11 12 13 13 14 15 15 15 15 15 16 16 16 16 16 16 16 16 16 17 16 16 16 15 15 14 15 15 16 15 14 13 12 14 15 14 13 12 12 11 10 9 10 11 11 10 10
12 12 11 11 11 11 11 11 12 12 9 7 8 9 10 11 11 10 11 12 13 13 13 14 15 15 15 15 15 15 16 16 16 16 16 15 15 15 15 15 14 14 15 15 15 15 14 13 12 13 13 12 12 12 13 12 11 11 11 11 12 11 9
8 10 10 9 9 10 11 11 12 11 8 7 7 8 9 11 11 12 11 12 12 12 12 13 13 13 13 15 14 14 15 15 15 15 15 15 14 13 13 13 13 13 15 18 21 19 17 15 12 13 14 13 13 13 13 11 11 11 11 11 12 10 9
11 11 11 12 10 10 10 10 11 11 9 8 7 8 9 10 11 11 11 12 12 11 11 11 14 19 16 13 13 13 13 14 15 14 14 14 14 13 13 11 10 16 18 20 20 20 20 20 21 17 14 12 13 13 13 12 12 12 11 12 13 11 10
10 11 11 12 11 11 11 10 10 11 12 10 10 9 9 10 10 10 11 12 11 11 10 10 16 16 18 19 16 14 14 13 14 14 14 14 14 13 12 12 10 11 12 15 16 18 19 21 21 23 24 21 17 15 14 14 14 12 12 12 12 10 12
10 11 12 12 13 12 10 10 10 10 11 12 12 12 12 10 11 10 9 10 11 11 11 13 17 17 17 19 18 15 13 12 13 13 13 14 13 12 12 12 12 11 11 12 13 14 17 19 21 22 22 22 21 21 21 17 15 13 12 12 12 13 12
10 10 10 11 12 12 11 10 10 11 12 11 11 12 14 13 10 10 10 11 12 11 10 13 16 18 20 21 21 19 14 14 14 14 13 14 14 13 12 12 13 12 12 17 15 12 11 10 12 17 19 21 22 22 21 22 22 17 12 13 14 14 13
10 10 10 10 11 12 11 10 10 10 10 11 10 11 12 14 14 11 10 10 11 10 10 10 14 18 21 23 23 20 15 14 14 15 15 15 14 14 14 13 12 12 11 12 11 11 9 9 8 7 9 11 11 14 17 19 20 22 19 14 13 13 14
10 10 10 10 10 11 11 10 10 10 10 10 11 11 11 12 13 14 13 11 10 10 9 11 13 14 12 16 20 20 16 16 15 15 14 15 15 15 14 13 12 11 11 12 13 13 12 12 10 9 8 8 9 8 9 8 7 6 7 8 9 11 13
13 11 10 10 10 11 11 11 12 11 11 10 9 9 10 9 11 13 14 13 11 10 10 12 15 15 17 17 18 13 15 15 16 16 15 14 13 13 13 13 12 12 12 13 16 22 20 14 12 12 12 11 12 12 13 14 15 13 10 8 7 11 15
13 14 13 12 11 11 11 12 11 9 10 10 11 11 11 11 10 11 14 14 12 10 11 11 15 17 17 19 14 10 12 12 7 9 10 12 12 12 12 13 13 13 14 14 17 18 19 18 12 12 12 12 12 9 8 6 11 15 16 17 20 24 26
13 13 13 13 13 12 11 9 9 8 9 11 12 11 11 11 11 10 11 14 13 11 11 11 13 15 17 19 17 13 13 11 10 12 12 10 9 8 10 16 16 13 13 13 17 19 19 16 12 12 13 12 10 8 6 6 8 11 18 20 15 9 8
11 12 12 13 12 12 11 11 10 8 9 9 10 10 10 10 11 10 9 11 17 16 13 12 14 15 17 19 16 11 10 10 11 13 11 9 7 7 9 12 17 16 14 15 20 20 21 18 14 14 15 11 11 12 11 12 12 10 10 6 5 8 9
11 12 13 14 13 12 11 10 10 10 9 9 9 9 9 10 12 11 10 10 11 12 13 12 11 15 15 14 17 11 7 6 8 9 8 8 9 9 8 8 11 16 18 17 17 19 21 24 18 15 12 11 10 12 11 11 11 11 11 9 6 8 9
11 11 11 11 11 11 10 10 10 10 10 9 8 9 10 10 11 11 9 10 10 11 11 12 12 15 16 16 16 15 10 12 11 9 8 8 7 8 10 11 9 13 17 17 16 17 18 18 15 10 10 10 13 16 14 10 10 12 6 6 6 7 8
10 8 10 12 13 11 11 11 10 11 9 9 11 10 10 10 11 11 9 8 10 10 10 14 12 13 15 17 16 18 11 10 10 8 8 8 9 9 9 8 8 10 14 17 16 13 13 15 17 11 13 15 17 16 12 10 5 6 7 7 7 7 7
10 8 10 11 13 12 11 11 11 10 11 11 11 11 11 10 11 11 10 8 8 10 11 11 10 8 11 14 15 16 16 12 11 9 8 8 9 10 8 7 6 10 12 13 15 17 15 13 9 9 11 12 13 16 14 6 6 8 7 7 8 7 7
10 9 10 10 10 11 12 12 10 10 10 10 10 10 10 10 10 9 10 10 11 10 8 4 9 12 10 12 15 15 16 16 13 9 9 8 8 7 5 5 4 6 11 15 18 21 20 16 12 16 16 15 16 14 9 8 7 8 8 7 7 8 8
Wind_Direction
242 241 233 233 226 225 215 228 229 223 216 215 213 218 218 214 212 216 216 208 200 203 198 202 209 203 199 205 205 213 215 204 204 219 227 214 211 229 205 227 240 239 220 264 187 190 202 229 275 263 243 234 231 232 230 229 223 220 218 216 220 219 220
248 247 249 235 225 225 235 233 230 238 227 216 213 215 216 216 217 214 213 214 214 215 207 207 204 194 197 198 200 205 211 217 211 220 223 222 217 229 207 227 229 239 242 229 285 247 205 220 254 234 245 236 235 240 234 232 230 223 221 218 216 217 215
260 258 248 251 238 222 228 235 228 230 228 224 222 219 214 214 216 213 209 213 217 215 208 217 209 198 196 197 200 203 206 215 212 211 220 226 221 228 220 221 220 231 240 258 242 235 246 216 237 241 227 223 228 238 224 231 231 230 226 222 219 220 219
266 260 259 253 249 236 228 228 227 232 228 227 226 228 225 219 217 212 208 210 214 212 211 216 220 213 202 199 201 199 204 209 212 213 221 224 220 220 222 215 224 218 224 228 231 224 221 227 247 251 255 235 230 250 236 225 230 231 228 224 224 222 221
272 269 262 256 247 242 237 240 230 232 235 228 232 231 230 228 222 219 214 212 211 208 212 216 217 216 214 206 200 199 204 207 211 213 218 221 217 219 224 222 224 223 228 230 230 217 219 233 220 251 250 252 269 245 265 234 235 233 228 226 225 225 222
293 274 265 261 255 244 238 243 242 238 235 227 230 232 235 227 221 223 220 217 216 214 212 211 216 216 213 207 204 202 201 203 206 210 218 222 217 217 222 224 226 224 230 232 227 223 222 223 220 246 249 207 240 263 253 226 251 232 230 232 226 224 225
307 295 277 263 258 249 241 241 241 237 239 238 233 225 228 227 219 219 220 223 221 218 216 214 215 216 213 207 203 204 205 206 203 208 218 220 218 222 217 221 224 228 232 227 226 221 223 210 226 228 246 259 233 256 290 244 242 236 257 234 232 230 228
302 300 292 273 262 257 247 244 243 240 241 239 235 234 230 226 225 223 219 220 223 223 217 217 218 217 214 210 206 207 207 205 205 208 216 216 219 221 219 222 228 231 232 226 222 230 223 225 228 224 212 245 267 265 267 262 276 227 243 244 221 227 227
301 302 301 294 276 258 253 243 243 240 240 239 237 235 230 222 223 225 221 219 220 221 218 214 214 216 214 212 211 208 209 203 207 209 215 215 221 219 220 223 227 234 231 228 226 230 229 230 228 224 199 220 237 259 256 272 264 259 239 244 259 227 224
303 304 301 295 290 279 261 250 243 241 238 238 238 234 237 228 224 224 223 220 219 220 221 217 210 209 213 215 214 209 212 207 208 212 211 214 220 218 221 221 226 234 234 229 231 231 231 231 230 228 216 223 222 242 255 255 250 248 254 213 240 246 215
300 298 294 297 303 297 287 269 257 249 244 238 236 237 234 233 227 224 225 222 220 219 221 218 211 206 202 206 208 212 211 206 207 212 210 214 218 216 220 223 225 232 233 231 230 230 229 229 229 226 222 223 215 230 238 246 258 219 255 257 229 256 236
298 296 299 300 299 296 293 285 264 252 250 245 242 238 237 236 232 229 224 224 220 223 222 220 212 205 199 202 210 216 215 202 202 213 212 216 224 218 220 223 224 230 228 230 234 231 228 226 228 227 228 218 218 224 234 237 256 246 183 244 244 240 252
299 300 299 300 297 293 291 287 279 263 250 244 239 236 239 238 236 234 229 226 219 216 218 215 210 208 203 207 206 209 210 203 202 210 217 211 212 217 220 223 224 227 225 225 230 230 228 225 223 225 225 224 226 222 226 237 239 256 205 219 241 252 242
299 297 295 293 293 293 289 284 277 263 253 245 240 238 239 239 239 235 233 228 225 220 216 215 213 206 213 218 212 210 214 209 210 215 218 219 215 215 217 221 225 225 220 222 225 225 227 225 220 222 223 223 229 222 218 228 240 253 253 202 227 239 251
294 292 289 293 293 292 291 288 282 269 253 247 239 238 236 237 237 235 233 234 228 223 216 212 210 205 206 222 219 210 215 212 215 219 216 223 220 218 213 218 224 224 218 222 223 224 224 224 222 222 221 218 226 227 212 222 235 241 256 217 238 234 259
292 293 296 294 290 290 290 290 287 275 257 248 242 236 237 234 234 233 232 231 233 228 220 219 211 208 208 211 213 212 214 213 215 218 218 223 223 219 217 219 223 221 217 221 223 225 223 226 222 225 229 223 228 226 215 217 229 239 246 254 212 238 229
296 297 292 289 286 288 289 288 287 281 265 250 246 240 236 236 233 233 231 232 232 233 226 219 219 214 212 212 213 214 214 214 214 216 218 221 220 216 218 222 224 219 215 220 223 223 223 224 224 226 231 231 230 232 227 220 226 237 244 257 229 215 221
293 290 287 285 285 287 287 286 287 283 272 256 246 244 242 238 238 234 231 229 230 230 227 221 219 216 212 211 214 216 216 215 217 217 219 221 219 217 218 221 224 215 212 220 224 223 220 221 224 227 232 232 230 232 229 225 229 229 241 245 253 214 215
286 286 286 286 286 285 285 284 283 281 267 256 251 245 246 245 239 236 232 229 229 229 225 222 220 218 215 213 214 217 218 216 218 219 221 223 220 217 219 220 222 215 212 216 223 222 219 220 222 227 232 233 231 229 227 228 223 228 233 244 249 256 214
283 282 282 281 283 285 283 282 281 275 262 254 259 260 252 251 246 240 236 232 231 230 228 224 220 218 217 217 216 216 216 216 218 220 221 221 220 221 220 221 221 216 216 217 221 220 218 219 220 226 230 232 232 230 230 228 224 226 230 241 248 246 253
285 282 281 284 285 285 287 290 289 278 266 258 257 257 257 254 254 249 243 238 236 235 232 231 226 222 219 219 219 218 217 216 218 220 222 222 220 221 221 222 222 219 218 220 221 222 217 219 218 226 227 227 227 228 230 230 228 230 234 239 243 247 239
305 312 307 303 308 313 316 317 312 299 278 262 256 259 259 258 255 249 246 243 240 235 234 234 233 228 221 222 222 222 220 218 217 219 222 223 224 224 224 223 223 222 220 223 221 220 217 215 217 224 227 221 225 225 230 230 229 229 236 238 246 241 242
321 319 317 316 317 320 321 319 317 314 300 281 277 275 276 267 256 249 244 242 240 236 234 232 232 231 226 223 223 224 225 222 220 219 220 221 222 223 224 224 226 225 224 224 225 222 219 217 217 220 225 216 219 221 225 228 226 227 230 234 237 235 233
322 320 319 318 322 324 323 322 324 331 333 324 305 294 283 279 271 258 249 245 242 237 235 237 234 227 223 222 225 225 223 224 221 221 220 220 221 217 222 226 230 238 238 235 233 226 221 221 220 222 224 219 213 213 220 222 226 223 224 231 236 229 231
319 319 321 321 320 320 323 325 327 330 330 330 329 322 303 280 277 275 270 261 254 247 238 232 229 226 224 223 221 224 223 221 219 221 220 222 222 218 216 218 222 225 235 242 240 234 229 226 223 222 223 222 218 216 214 214 222 223 217 225 232 231 231
316 317 318 319 318 321 324 325 328 330 327 325 322 323 319 303 277 271 267 265 262 254 251 238 230 227 224 221 219 220 227 219 217 217 218 220 219 216 214 216 221 220 219 226 240 245 252 254 248 247 241 230 223 219 219 221 220 221 215 219 227 234 229
314 315 317 319 319 319 322 322 323 321 319 320 318 316 317 318 312 293 276 266 261 262 254 246 233 236 231 223 216 214 225 222 219 216 214 216 216 217 214 212 214 220 217 216 223 232 231 236 243 250 265 273 272 254 242 233 229 228 225 220 222 234 241
314 316 317 316 317 317 318 319 320 321 316 313 313 314 315 314 311 307 295 280 276 267 256 228 204 218 232 236 225 211 221 221 223 221 215 212 213 215 215 214 208 209 208 211 209 205 220 224 224 226 239 244 242 252 265 278 286 319 324 322 303 285 275
321 317 316 317 317 316 316 319 318 318 312 308 305 305 305 301 303 307 304 296 276 265 264 236 215 216 218 222 214 219 220 220 219 220 220 216 213 214 214 213 208 205 207 215 215 209 214 215 219 223 221 222 230 226 228 224 214 199 196 179 205 241 261
327 324 322 318 313 312 313 312 311 310 305 308 308 309 305 301 300 300 302 298 286 272 271 252 229 228 220 219 209 205 222 229 230 227 223 223 220 214 211 210 210 208 208 212 220 213 209 207 221 224 229 231 234 234 245 251 224 216 210 203 209 216 226
330 327 321 317 314 311 306 298 296 301 303 307 304 303 300 298 296 291 294 295 289 281 269 259 236 231 222 219 210 211 218 220 215 223 224 225 228 229 223 216 212 211 210 214 215 212 206 196 210 214 224 223 217 225 230 226 228 226 219 217 227 249 263
332 324 315 308 306 304 304 304 302 298 292 289 289 294 294 294 294 291 287 287 290 284 274 265 246 233 230 221 213 213 209 209 214 220 219 216 213 224 239 230 220 215 213 213 212 205 193 187 200 202 211 201 195 200 210 210 217 221 241 227 176 193 216
335 332 325 319 312 305 299 298 297 295 291 289 292 294 294 292 289 288 288 284 283 280 275 268 252 238 235 227 218 214 212 218 214 217 210 206 208 211 222 230 229 227 227 223 213 202 195 192 197 203 198 197 199 222 214 211 211 202 212 214 209 196 214
337 335 339 330 325 313 304 295 293 294 295 300 304 305 303 299 293 290 288 284 283 279 271 267 257 239 237 227 212 199 207 212 213 209 209 208 209 208 214 217 218 219 224 228 221 213 208 208 216 206 197 191 191 213 216 218 216 206 196 193 197 206 216
336 341 353 345 342 342 342 345 337 340 340 331 321 315 314 310 306 303 302 293 293 295 279 262 258 246 231 226 218 200 205 212 205 199 202 202 212 220 228 225 224 218 218 228 234 235 229 218 210 205 205 199 198 201 201 218 175 153 170 183 192 205 212
341 340 359 356 351 348 350 346 345 346 342 336 328 322 315 315 314 313 312 313 314 305 296 278 262 280 252 226 215 202 206 212 205 205 199 200 205 217 219 221 219 211 205 214 225 230 225 210 213 231 241 226 210 206 209 199 175 190 186 189 195 206 213
344 342 358 1 358 351 352 351 350 350 345 340 334 327 323 318 316 317 327 325 327 314 306 3 29 10 328 255 226 209 206 214 215 202 205 207 211 210 201 198 201 203 210 209 213 217 218 197 206 213 218 219 216 209 199 204 201 202 196 189 196 207 216